This demonstration page uses our WeatherBlox Daily Observations layout. Learn more.

Left ArrowRight Arrow

Hourly Observations for May 10, 2018

Temp ( °F °C ) Dew Point ( °F °C ) Humidity (%) Winds ( mph kmh ) Pressure ( in mb ) Visibility ( mi km ) Precip ( " mm )
1:53 am 01:53 Clear 56 13.3 46 7.8 70 70 N 3 6 29.91 1013 10 16 0.00 0.00
2:53 am 02:53 Clear 59 15 47 8.3 64 64 Calm 29.89 1012 10 16 0.00 0.00
3:53 am 03:53 Clear 56 13.3 47 8.3 72 72 ENE 7 11 29.90 1013 10 16 0.00 0.00
4:53 am 04:53 Clear 54 12.2 47 8.3 77 77 ENE 6 9 29.91 1013 10 16 0.00 0.00
5:53 am 05:53 Clear 54 12.2 47 8.3 77 77 ENE 7 11 29.91 1013 10 16 0.00 0.00
6:53 am 06:53 Sunny 57 13.9 48 8.9 72 72 E 7 11 29.91 1013 10 16 0.00 0.00
7:53 am 07:53 Sunny 60 15.6 49 9.4 67 67 E 8 13 29.93 1014 10 16 0.00 0.00
8:53 am 08:53 Sunny 65 18.3 50 10 59 59 E 10 17 29.94 1014 10 16 0.00 0.00
9:53 am 09:53 Sunny 67 19.4 51 10.6 57 57 ESE 9 15 29.93 1014 10 16 0.00 0.00
10:53 am 10:53 Sunny 71 21.7 51 10.6 49 49 ESE 16 26 29.92 1013 10 16 0.00 0.00
11:53 am 11:53 Sunny 74 23.3 52 11.1 46 46 ESE 9 15 29.91 1013 10 16 0.00 0.00
12:53 pm 12:53 Sunny 78 25.6 53 11.7 42 42 E 9 15 29.88 1012 10 16 0.00 0.00
1:53 pm 13:53 Sunny 81 27.2 54 12.2 39 39 E 7 11 29.85 1011 10 16 0.00 0.00
2:53 pm 14:53 Sunny 84 28.9 53 11.7 34 34 SE 10 17 29.81 1010 10 16 0.00 0.00
3:53 pm 15:53 Sunny 84 28.9 53 11.7 34 34 SSE 8 13 29.78 1009 10 16 0.00 0.00
4:53 pm 16:53 Sunny 85 29.4 55 12.8 36 36 SSE 12 19 29.75 1008 10 16 0.00 0.00
5:53 pm 17:53 Sunny 84 28.9 54 12.2 36 36 SE 16 26 29.73 1007 10 16 0.00 0.00
6:53 pm 18:53 Sunny 83 28.3 55 12.8 38 38 SE 14 22 29.71 1006 10 16 0.00 0.00
7:53 pm 19:53 Sunny 81 27.2 56 13.3 42 42 SE 15 24 29.68 1005 10 16 0.00 0.00
8:53 pm 20:53 Clear 78 25.6 56 13.3 47 47 SE 10 17 29.69 1006 10 16 0.00 0.00
9:53 pm 21:53 Clear 76 24.4 56 13.3 50 50 ESE 10 17 29.70 1006 10 16 0.00 0.00
10:53 pm 22:53 Clear 70 21.1 54 12.2 57 57 E 14 22 29.69 1005 10 16 0.00 0.00
11:53 pm 23:53 Cloudy 69 20.6 54 12.2 59 59 ENE 14 22 29.72 1006 10 16 0.00 0.00

Powered by AerisWeather